TimeMDT,TemperatureF,Dew PointF,Humidity,Sea Level PressureIn,VisibilityMPH,Wind Direction,Wind SpeedMPH,Gust SpeedMPH,PrecipitationIn,Events,Conditions,WindDirDegrees,DateUTC
12:53 AM,48.9,28.0,44,30.11,10.0,NE,12.7,-,N/A,,Clear,50,2013-05-08 06:53:00
1:53 AM,46.0,28.9,51,30.13,10.0,East,6.9,-,N/A,,Clear,80,2013-05-08 07:53:00
2:53 AM,44.1,28.9,55,30.14,10.0,East,4.6,-,N/A,,Clear,80,2013-05-08 08:53:00
3:53 AM,39.9,28.0,63,30.16,10.0,ENE,5.8,-,N/A,,Clear,70,2013-05-08 09:53:00
4:53 AM,39.9,30.0,68,30.16,10.0,ENE,10.4,-,N/A,,Clear,70,2013-05-08 10:53:00
5:53 AM,39.0,30.0,70,30.17,10.0,East,9.2,-,N/A,,Clear,100,2013-05-08 11:53:00
6:53 AM,41.0,30.9,67,30.18,10.0,East,8.1,-,N/A,,Clear,80,2013-05-08 12:53:00
7:53 AM,45.0,32.0,60,30.19,10.0,East,12.7,-,N/A,,Clear,80,2013-05-08 13:53:00
8:53 AM,48.9,33.1,54,30.19,10.0,ENE,11.5,-,N/A,,Clear,70,2013-05-08 14:53:00
9:53 AM,55.0,34.0,45,30.18,10.0,ENE,12.7,-,N/A,,Clear,70,2013-05-08 15:53:00
10:53 AM,57.9,35.1,42,30.18,10.0,East,10.4,-,N/A,,Clear,100,2013-05-08 16:53:00
11:53 AM,61.0,35.1,38,30.17,10.0,ESE,11.5,-,N/A,,Clear,110,2013-05-08 17:53:00
12:53 PM,64.0,34.0,33,30.16,10.0,East,11.5,19.6,N/A,,Clear,100,2013-05-08 18:53:00
1:53 PM,66.9,28.9,24,30.14,10.0,East,15.0,-,N/A,,Clear,80,2013-05-08 19:53:00
2:53 PM,69.1,30.9,24,30.12,10.0,East,15.0,21.9,N/A,,Clear,100,2013-05-08 20:53:00
3:53 PM,70.0,32.0,25,30.10,10.0,East,16.1,23.0,N/A,,Clear,100,2013-05-08 21:53:00
4:53 PM,70.0,30.9,24,30.09,10.0,East,17.3,28.8,N/A,,Mostly Cloudy,100,2013-05-08 22:53:00
5:53 PM,68.0,27.0,21,30.09,10.0,East,19.6,27.6,N/A,,Clear,100,2013-05-08 23:53:00
6:53 PM,66.0,28.9,25,30.09,10.0,East,17.3,28.8,N/A,,Clear,90,2013-05-09 00:53:00
7:53 PM,63.0,30.9,30,30.09,10.0,East,16.1,-,N/A,,Clear,90,2013-05-09 01:53:00
8:53 PM,60.1,30.9,33,30.10,10.0,East,16.1,-,N/A,,Clear,90,2013-05-09 02:53:00
9:53 PM,57.0,30.9,37,30.10,10.0,East,13.8,-,N/A,,Clear,90,2013-05-09 03:53:00
10:53 PM,54.0,30.9,41,30.11,10.0,East,12.7,-,N/A,,Clear,80,2013-05-09 04:53:00
11:53 PM,51.1,32.0,48,30.10,10.0,East,10.4,-,N/A,,Clear,80,2013-05-09 05:53:00